ICT,Max TemperatureF,Mean TemperatureF,Min TemperatureF,Max Dew PointF,MeanDew PointF,Min DewpointF,Max Humidity, Mean Humidity, Min Humidity, Max Sea Level PressureIn, Mean Sea Level PressureIn, Min Sea Level PressureIn, Max VisibilityMiles, Mean VisibilityMiles, Min VisibilityMiles, Max Wind SpeedMPH, Mean Wind SpeedMPH, Max Gust SpeedMPH,PrecipitationIn, CloudCover, Events, WindDirDegrees
2013-10-1,91,82,73,77,74,72,100,77,55,29.83,29.79,29.74,6,6,4,12,3,,0.00,3,,253
2013-10-2,89,81,73,79,74,70,94,76,55,29.89,29.84,29.80,6,6,3,9,4,,0.00,5,,243
2013-10-3,89,81,73,75,73,72,100,80,58,29.95,29.88,29.80,6,6,4,12,4,,0.00,5,Rain-Thunderstorm,278
2013-10-4,86,80,75,75,73,72,94,82,66,29.95,29.87,29.83,6,5,2,12,4,,0.00,6,Rain,287
2013-10-5,84,80,75,75,74,72,94,88,70,29.89,29.84,29.77,6,6,1,14,5,,0.00,6,Rain,270
2013-10-6,78,76,73,75,73,72,100,90,83,29.86,29.81,29.77,6,6,4,14,3,,0.00,6,Rain,227
2013-10-7,84,78,73,73,72,70,94,80,62,29.89,29.82,29.74,6,6,1,15,6,30,0.00,5,Rain,265
2013-10-8,80,76,73,77,73,72,100,91,78,29.89,29.84,29.80,6,5,3,8,3,,0.00,7,Rain,283
2013-10-9,87,80,73,77,75,72,94,80,66,29.89,29.86,29.80,6,6,3,10,3,,0.00,6,Rain,235
2013-10-10,89,80,71,75,72,70,100,70,55,29.95,29.88,29.80,6,6,2,10,4,,0.00,5,,288
2013-10-11,91,81,71,77,74,70,100,78,55,29.92,29.86,29.77,6,6,3,12,3,,0.00,5,Rain-Thunderstorm,293
2013-10-12,91,82,73,77,73,70,100,74,52,29.89,29.82,29.77,6,6,4,13,4,,0.00,4,,283
2013-10-13,89,81,73,75,74,72,94,71,59,29.92,29.83,29.77,6,6,6,12,5,,0.00,5,,290
2013-10-14,91,83,75,75,74,72,94,71,55,29.86,29.80,29.74,6,6,6,9,4,,0.00,3,,290
2013-10-15,91,84,78,77,74,72,94,67,52,29.86,29.79,29.74,6,6,6,10,5,,0.00,4,Thunderstorm,259
2013-10-16,89,81,73,77,75,73,100,80,62,29.86,29.79,29.74,6,6,3,12,4,,0.00,4,Rain,218
2013-10-17,91,81,71,77,75,72,100,72,55,29.86,29.80,29.74,6,6,5,10,4,,0.00,3,,218
2013-10-18,93,84,75,77,75,73,94,81,56,29.89,29.84,29.77,6,6,5,7,3,,0.00,5,Rain,298
2013-10-19,89,81,73,75,74,72,100,85,62,29.95,29.88,29.83,6,4,0,9,2,,0.00,6,Rain-Thunderstorm,302
2013-10-20,86,80,73,77,74,72,100,88,62,29.92,29.87,29.80,6,4,0,9,3,,0.00,7,Fog-Rain-Thunderstorm,258
2013-10-21,87,80,73,75,74,73,100,86,66,29.89,29.83,29.77,6,5,0,10,2,,0.00,4,Fog-Rain,231
2013-10-22,93,84,75,77,74,72,94,77,49,29.92,29.85,29.80,6,5,1,10,5,,0.00,6,Rain,40
2013-10-23,91,81,71,77,73,70,94,74,52,29.92,29.85,29.80,6,5,3,9,3,,0.00,4,Thunderstorm,96
2013-10-24,87,80,73,77,75,72,94,80,66,29.92,29.84,29.77,6,5,2,7,3,,0.00,6,Rain,52
2013-10-25,89,81,73,75,74,72,100,75,62,29.92,29.86,29.80,6,6,4,8,3,,0.00,5,,138
2013-10-26,89,81,73,77,75,72,100,86,66,29.95,29.88,29.83,6,5,4,6,3,,0.00,5,Rain-Thunderstorm,48
2013-10-27,86,80,75,77,75,73,94,87,70,29.92,29.88,29.83,6,4,2,6,3,,0.00,7,Rain-Thunderstorm,108
2013-10-28,86,80,73,75,74,72,100,90,70,29.95,29.90,29.86,6,5,1,10,4,,0.00,5,Rain,40
2013-10-29,89,81,73,79,74,72,94,82,55,29.98,29.91,29.83,6,5,0,9,4,,0.00,2,,151
2013-10-30,93,82,71,77,75,70,100,79,52,29.95,29.88,29.80,6,5,2,10,4,,0.00,3,Rain,69
2013-10-31,89,81,73,77,75,72,94,85,62,29.95,29.87,29.80,6,4,0,7,3,,0.00,4,Fog,28